Flag for U.S.A. Weather past 2 weeks in Sheboygan, Wisconsin, U.S.A.

35 °F

Rain. Mostly cloudy.

Feels Like: 27 °F
Forecast: 29 / 38 °F
Wind: 10 mph from North

Location: Sheboygan County Memorial Airport

Current Time: Nov 27, 2015 at 2:30:30 AM

Latest Report: Nov 27, 2015 at 1:53 AM

Visibility: 7 mi

Pressure: 30.28 "Hg

Humidity: 88%

Dew point: 32 °F

Location of SheboyganLocation

Historic Weather in Sheboygan — Graph


Sheboygan temperature yesterday

Maximum temperature yesterday: 53 °F (at 10:53 AM)
Minimum temperature yesterday: 37 °F (at 11:53 PM)
Average temperature yesterday: 48 °F

Past Weeks' High & Low Weather Summary

High63 °F (Nov 15, 1:53 PM)97% (Nov 17, 1:53 AM)30.34 "Hg (Nov 17, 1:53 AM)
Low14 °F (Nov 22, 6:53 AM)38% (Nov 15, 1:53 PM)29.09 "Hg (Nov 12, 3:53 AM)
Average40 °F72%29.99 "Hg
* Reported Nov 12 12:53 AM — Nov 27 12:53 AM, Sheboygan, Weather by CustomWeather, © 2015

Note: Actual official high and low records may vary slightly from our data, if they occured in-between our weather recording intervals... More about our weather records


Sheboygan weather history for previous 24 hours

Time TempWeatherWind HumidityBarometerVisibility
12:53 AM
Fri, Nov 27
35 °FRain. Fog.13 mph92%30.24 "Hg6 mi
11:53 PM
Thu, Nov 26
37 °FRain. Low clouds.12 mph89%30.24 "Hg8 mi
10:53 PM38 °FRain. Fog.8 mph93%30.22 "Hg5 mi
9:53 PM40 °FRain. Mostly cloudy.12 mph89%30.19 "Hg7 mi
8:53 PM42 °FLight rain. Mostly cloudy.15 mph89%30.16 "Hg9 mi
7:53 PM44 °FLight rain. Low clouds.13 mph93%30.13 "Hg8 mi
6:53 PM52 °FRain. Fog.3 mph93%30.10 "Hg2 mi
5:53 PM52 °FLight rain. Fog.5 mph93%30.08 "Hg4 mi
4:53 PM50 °FRain. Fog.5 mph96%30.07 "Hg3 mi
4:04 PM50 °FRain. Fog.8 mph93%30.07 "Hg3 mi
2:53 PM49 °FHeavy rain. Fog.8 mph93%30.07 "Hg1 mi
1:53 PM50 °FFog.7 mph93%30.07 "Hg4 mi
12:53 PM52 °FOvercast.5 mph89%30.10 "Hg9 mi
11:53 AM52 °FOvercast.9 mph89%30.14 "Hg10 mi
10:53 AM53 °FPartly sunny.10 mph83%30.15 "Hg10 mi
9:53 AM50 °FLight rain. Mostly cloudy.9 mph89%30.19 "Hg9 mi
8:53 AM50 °FLight rain. Overcast.7 mph89%30.19 "Hg9 mi
7:53 AM49 °FMore clouds than sun.9 mph90%30.19 "Hg10 mi
7:03 AM50 °FOvercast.10 mph86%30.17 "Hg10 mi
6:53 AM49 °FMostly cloudy.8 mph86%30.17 "Hg10 mi
5:53 AM48 °FOvercast.6 mph86%30.17 "Hg10 mi
4:53 AM49 °FOvercast.8 mph84%30.16 "Hg10 mi
3:53 AM48 °FOvercast.7 mph83%30.16 "Hg10 mi
2:53 AM48 °FLight rain. Mostly cloudy.6 mph83%30.16 "Hg10 mi
Weather by CustomWeather, © 2015

See weather overviewHow to use our weather pages